TimeEST,TemperatureF,Dew PointF,Humidity,Sea Level PressureIn,VisibilityMPH,Wind Direction,Wind SpeedMPH,Gust SpeedMPH,PrecipitationIn,Events,Conditions,WindDirDegrees,DateUTC
12:53 AM,37.0,28.9,73,30.22,10.0,South,13.8,-,N/A,,Clear,170,2013-01-09 05:53:00
1:53 AM,37.0,28.0,70,30.21,10.0,SSE,15.0,21.9,N/A,,Clear,160,2013-01-09 06:53:00
2:53 AM,37.9,28.0,68,30.20,10.0,SSE,15.0,-,N/A,,Clear,160,2013-01-09 07:53:00
3:53 AM,37.0,27.0,67,30.18,10.0,SSE,15.0,-,N/A,,Clear,160,2013-01-09 08:53:00
4:53 AM,37.0,27.0,67,30.15,10.0,SSE,17.3,-,N/A,,Mostly Cloudy,160,2013-01-09 09:53:00
5:53 AM,37.9,27.0,65,30.15,10.0,South,17.3,-,N/A,,Mostly Cloudy,170,2013-01-09 10:53:00
6:53 AM,41.0,28.9,62,30.13,10.0,SSE,18.4,-,N/A,,Overcast,160,2013-01-09 11:53:00
7:53 AM,44.1,33.1,65,30.17,10.0,SSW,16.1,24.2,0.00,Rain,Light Rain,200,2013-01-09 12:53:00
8:53 AM,42.1,35.1,76,30.16,10.0,South,16.1,23.0,0.02,,Overcast,180,2013-01-09 13:53:00
9:53 AM,43.0,36.0,76,30.17,10.0,South,15.0,28.8,N/A,,Clear,190,2013-01-09 14:53:00
10:53 AM,45.0,37.0,74,30.17,10.0,SW,16.1,25.3,N/A,,Clear,230,2013-01-09 15:53:00
11:53 AM,46.0,36.0,68,30.19,10.0,WSW,19.6,27.6,N/A,,Clear,240,2013-01-09 16:53:00
12:53 PM,48.0,35.1,61,30.16,10.0,SW,18.4,25.3,N/A,,Clear,230,2013-01-09 17:53:00
1:53 PM,48.0,33.1,56,30.17,10.0,WSW,18.4,-,N/A,,Clear,240,2013-01-09 18:53:00
2:53 PM,46.9,32.0,56,30.19,10.0,SW,20.7,24.2,N/A,,Clear,230,2013-01-09 19:53:00
3:53 PM,46.9,30.9,54,30.22,10.0,SW,17.3,24.2,N/A,,Clear,230,2013-01-09 20:53:00
4:53 PM,43.0,30.0,60,30.26,10.0,WSW,19.6,24.2,N/A,,Clear,250,2013-01-09 21:53:00
5:53 PM,41.0,28.9,62,30.28,10.0,WSW,13.8,-,N/A,,Clear,240,2013-01-09 22:53:00
6:53 PM,39.9,30.0,68,30.33,10.0,SW,13.8,-,N/A,,Clear,230,2013-01-09 23:53:00
7:53 PM,39.0,30.0,70,30.37,10.0,SW,10.4,-,N/A,,Clear,230,2013-01-10 00:53:00
8:53 PM,37.9,30.0,73,30.40,10.0,SW,12.7,-,N/A,,Clear,230,2013-01-10 01:53:00
9:53 PM,36.0,28.9,76,30.42,10.0,SW,10.4,-,N/A,,Clear,230,2013-01-10 02:53:00
10:53 PM,35.1,28.9,78,30.45,10.0,WSW,9.2,-,N/A,,Clear,240,2013-01-10 03:53:00
11:53 PM,34.0,28.9,82,30.49,10.0,West,5.8,-,N/A,,Clear,260,2013-01-10 04:53:00